This demonstration page uses our WeatherBlox Daily Observations layout. Learn more.

Hourly Observations for March 27, 2019

Temp ( °F °C ) Dew Point ( °F °C ) Humidity (%) Winds ( mph kmh ) Pressure ( in mb ) Visibility ( mi km ) Precip ( " mm )
12:15 am 00:15 Clear 32 0 28 -2 87 87 NNW 3 6 30.42 1030 10 16.09344 0 0
12:35 am 00:35 Clear 32 0 27 -3 80 80 Calm 30.42 1030 10 16.09344 0 0
12:55 am 00:55 Clear 32 0 25 -4 75 75 Calm 30.42 1030 10 16.09344 0 0
1:15 am 01:15 Clear 30 -1 27 -3 86 86 WNW 3 6 30.45 1031 10 16.09344 0 0
1:35 am 01:35 Clear 32 0 27 -3 80 80 Calm 30.45 1031 10 16.09344 0 0
1:55 am 01:55 Clear 30 -1 27 -3 86 86 NW 3 6 30.45 1031 10 16.09344 0 0
2:15 am 02:15 Clear 30 -1 27 -3 86 86 NNW 5 7 30.45 1031 10 16.09344 0 0
2:35 am 02:35 Clear 32 0 23 -5 69 69 N 3 6 30.45 1031 10 16.09344 0 0
2:55 am 02:55 Clear 28 -2 23 -5 80 80 N 3 6 30.45 1031 10 16.09344 0 0
3:15 am 03:15 Clear 32 0 23 -5 69 69 NNE 6 9 30.45 1031 10 16.09344 0 0
3:35 am 03:35 Clear 30 -1 27 -3 86 86 NNE 6 9 30.48 1032 10 16.09344 0 0
3:55 am 03:55 Clear 28 -2 27 -3 93 93 N 6 9 30.48 1032 10 16.09344 0 0
4:15 am 04:15 Clear 32 0 23 -5 69 69 NNE 6 9 30.48 1032 10 16.09344 0 0
4:35 am 04:35 Clear 32 0 23 -5 69 69 NNE 5 7 30.48 1032 10 16.09344 0 0
4:55 am 04:55 Clear 32 0 23 -5 69 69 NNE 6 9 30.48 1032 10 16.09344 0 0
5:15 am 05:15 Clear 32 0 23 -5 69 69 NNE 7 11 30.48 1032 10 16.09344 0 0
5:35 am 05:35 Clear 32 0 21 -6 64 64 N 6 9 30.5 1033 10 16.09344 0 0
5:55 am 05:55 Clear 32 0 23 -5 69 69 N 5 7 30.5 1033 10 16.09344 0 0
6:15 am 06:15 Clear 32 0 21 -6 64 64 NNE 5 7 30.5 1033 10 16.09344 0 0
6:35 am 06:35 Clear 32 0 21 -6 64 64 NNE 6 9 30.53 1034 10 16.09344 0 0
6:55 am 06:55 Clear 32 0 19 -7 60 60 undefined N/A 30.53 1034 10 16.09344 0 0
7:15 am 07:15 Sunny 32 0 19 -7 60 60 NNE 5 7 30.53 1034 10 16.09344 0 0
7:35 am 07:35 Sunny 32 0 21 -6 64 64 NNE 3 6 30.53 1034 10 16.09344 0 0
7:55 am 07:55 Sunny 32 0 19 -7 60 60 NNE 5 7 30.53 1034 10 16.09344 0 0
8:15 am 08:15 Sunny 34 1 19 -7 56 56 NNE 5 7 30.53 1034 10 16.09344 0 0
8:35 am 08:35 Sunny 36 2 18 -8 48 48 NNE 3 6 30.53 1034 10 16.09344 0 0
8:55 am 08:55 Sunny 37 3 18 -8 45 45 NNE 6 9 30.53 1034 10 16.09344 0 0
9:15 am 09:15 Sunny 37 3 18 -8 45 45 NNE 7 11 30.53 1034 10 16.09344 0 0
9:35 am 09:35 Sunny 39 4 14 -10 36 36 E 7 11 30.53 1034 10 16.09344 0 0
9:55 am 09:55 Sunny 41 5 18 -8 39 39 ENE 6 9 30.53 1034 10 16.09344 0 0
10:15 am 10:15 Sunny 41 5 16 -9 36 36 E 5 7 30.53 1034 10 16.09344 0 0
10:35 am 10:35 Sunny 43 6 14 -10 31 31 SSE 5 7 30.53 1034 10 16.09344 0 0
10:55 am 10:55 Sunny 43 6 14 -10 31 31 SE 3 6 30.53 1034 10 16.09344 0 0
11:15 am 11:15 Sunny 43 6 14 -10 31 31 Calm 30.53 1034 10 16.09344 0 0
11:35 am 11:35 Sunny 45 7 18 -8 34 34 Calm 30.53 1034 10 16.09344 0 0
11:55 am 11:55 Sunny 46 8 18 -8 32 32 Calm 30.53 1034 10 16.09344 0 0
12:15 pm 12:15 Sunny 46 8 18 -8 32 32 Calm 30.53 1034 10 16.09344 0 0
12:35 pm 12:35 Sunny 46 8 18 -8 32 32 NNE 3 6 30.53 1034 10 16.09344 0 0
12:55 pm 12:55 Sunny 46 8 19 -7 34 34 Calm 30.53 1034 10 16.09344 0 0
1:15 pm 13:15 Sunny 48 9 18 -8 29 29 Calm 30.53 1034 10 16.09344 0 0
1:35 pm 13:35 Sunny 50 10 18 -8 28 28 E 7 11 30.53 1034 10 16.09344 0 0
1:55 pm 13:55 Sunny 50 10 19 -7 30 30 E 5 7 30.53 1034 10 16.09344 0 0
2:15 pm 14:15 Sunny 50 10 19 -7 30 30 NE 3 6 30.53 1034 10 16.09344 0 0
2:35 pm 14:35 Sunny 52 11 19 -7 28 28 WSW 7 11 30.5 1033 10 16.09344 0 0
2:55 pm 14:55 Sunny 52 11 19 -7 28 28 S 6 9 30.5 1033 10 16.09344 0 0
3:15 pm 15:15 Sunny 52 11 19 -7 28 28 WSW 6 9 30.5 1033 10 16.09344 0 0
3:35 pm 15:35 Sunny 54 12 21 -6 28 28 S 7 11 30.48 1032 10 16.09344 0 0
3:55 pm 15:55 Sunny 54 12 19 -7 26 26 SE 8 13 30.48 1032 10 16.09344 0 0
4:15 pm 16:15 Sunny 54 12 19 -7 26 26 SSE 7 11 30.48 1032 10 16.09344 0 0
4:35 pm 16:35 Sunny 54 12 19 -7 26 26 S 8 13 30.48 1032 10 16.09344 0 0
4:55 pm 16:55 Sunny 54 12 19 -7 26 26 SE 7 11 30.45 1031 10 16.09344 0 0
5:15 pm 17:15 Sunny 54 12 19 -7 26 26 SE 6 9 30.45 1031 10 16.09344 0 0
5:35 pm 17:35 Sunny 54 12 19 -7 26 26 SSE 8 13 30.45 1031 10 16.09344 0 0
5:55 pm 17:55 Sunny 54 12 19 -7 26 26 SE 5 7 30.45 1031 10 16.09344 0 0
6:15 pm 18:15 Sunny 54 12 19 -7 26 26 SE 6 9 30.45 1031 10 16.09344 0 0
6:35 pm 18:35 Sunny 54 12 19 -7 26 26 SE 6 9 30.45 1031 10 16.09344 0 0
6:55 pm 18:55 Sunny 54 12 21 -6 28 28 SSE 6 9 30.45 1031 10 16.09344 0 0
7:15 pm 19:15 Sunny 52 11 21 -6 30 30 SSW 8 13 30.45 1031 10 16.09344 0 0
7:35 pm 19:35 Clear 50 10 21 -6 32 32 S 7 11 30.45 1031 10 16.09344 0 0
7:55 pm 19:55 Clear 48 9 21 -6 34 34 S 6 9 30.45 1031 10 16.09344 0 0
8:15 pm 20:15 Clear 48 9 21 -6 34 34 S 6 9 30.48 1032 10 16.09344 0 0
8:35 pm 20:35 Clear 48 9 21 -6 34 34 SSE 5 7 30.45 1031 10 16.09344 0 0
8:55 pm 20:55 Clear 46 8 21 -6 37 37 SE 6 9 30.48 1032 10 16.09344 0 0
9:15 pm 21:15 Clear 46 8 23 -5 40 40 SSE 7 11 30.48 1032 10 16.09344 0 0
9:35 pm 21:35 Clear 46 8 25 -4 43 43 S 8 13 30.48 1032 10 16.09344 0 0
9:55 pm 21:55 Clear 46 8 27 -3 46 46 SSE 8 13 30.48 1032 10 16.09344 0 0
10:15 pm 22:15 Clear 46 8 27 -3 46 46 SSE 8 13 30.48 1032 10 16.09344 0 0
10:35 pm 22:35 Clear 45 7 25 -4 46 46 S 10 17 30.48 1032 10 16.09344 0 0
10:55 pm 22:55 Clear 43 6 25 -4 49 49 S 6 9 30.48 1032 10 16.09344 0 0
11:15 pm 23:15 Clear 43 6 25 -4 49 49 S 6 9 30.48 1032 10 16.09344 0 0
11:35 pm 23:35 Clear 41 5 27 -3 57 57 S 8 13 30.48 1032 10 16.09344 0 0
11:55 pm 23:55 Clear 43 6 28 -2 57 57 S 9 15 30.48 1032 10 16.09344 0 0

Powered by AerisWeather